TimeCDT,TemperatureF,Dew PointF,Humidity,Sea Level PressureIn,VisibilityMPH,Wind Direction,Wind SpeedMPH,Gust SpeedMPH,PrecipitationIn,Events,Conditions,WindDirDegrees,DateUTC
12:53 AM,64.0,61.0,90,29.89,10.0,North,5.8,-,N/A,,Clear,360,2013-08-02 05:53:00
1:53 AM,63.0,60.1,90,29.91,9.0,WSW,3.5,-,N/A,,Clear,240,2013-08-02 06:53:00
2:53 AM,62.1,60.1,93,29.91,9.0,WSW,3.5,-,N/A,,Clear,250,2013-08-02 07:53:00
3:53 AM,64.0,61.0,90,29.91,9.0,NNW,3.5,-,N/A,,Scattered Clouds,330,2013-08-02 08:53:00
4:53 AM,63.0,61.0,93,29.92,8.0,Calm,Calm,-,N/A,,Overcast,0,2013-08-02 09:53:00
5:53 AM,64.9,61.0,87,29.93,10.0,Calm,Calm,-,N/A,,Overcast,0,2013-08-02 10:53:00
6:53 AM,64.9,61.0,87,29.91,8.0,NE,3.5,-,N/A,,Overcast,40,2013-08-02 11:53:00
7:53 AM,66.9,61.0,81,29.92,10.0,Calm,Calm,-,N/A,,Clear,0,2013-08-02 12:53:00
8:53 AM,72.0,60.1,66,29.92,10.0,NE,5.8,-,N/A,,Clear,40,2013-08-02 13:53:00
9:53 AM,72.0,55.9,57,29.91,10.0,NE,8.1,-,N/A,,Clear,50,2013-08-02 14:53:00
10:53 AM,72.0,57.0,59,29.95,10.0,NE,5.8,-,N/A,,Mostly Cloudy,40,2013-08-02 15:53:00
11:53 AM,68.0,62.1,81,30.00,10.0,NNW,4.6,-,0.01,Rain,Light Rain,340,2013-08-02 16:53:00
12:53 PM,66.0,59.0,78,30.00,6.0,North,3.5,-,0.08,Rain,Light Rain,360,2013-08-02 17:53:00
1:53 PM,66.0,61.0,84,30.01,3.0,NW,3.5,-,0.07,Rain,Rain,320,2013-08-02 18:53:00
2:53 PM,66.0,61.0,84,30.00,10.0,NE,3.5,-,0.02,,Overcast,40,2013-08-02 19:53:00
3:53 PM,68.0,57.9,70,30.01,10.0,Calm,Calm,-,0.00,,Overcast,0,2013-08-02 20:53:00
4:53 PM,66.9,59.0,76,29.99,10.0,SSE,3.5,-,0.03,Rain,Light Rain,150,2013-08-02 21:53:00
5:53 PM,68.0,60.1,76,29.98,10.0,Calm,Calm,-,0.00,,Mostly Cloudy,0,2013-08-02 22:53:00
6:53 PM,69.1,57.9,68,30.01,10.0,North,5.8,-,N/A,,Overcast,360,2013-08-02 23:53:00
7:53 PM,69.1,60.1,73,30.01,10.0,North,4.6,-,N/A,,Overcast,350,2013-08-03 00:53:00
8:53 PM,64.0,61.0,90,30.03,10.0,NNW,5.8,-,N/A,,Clear,340,2013-08-03 01:53:00
9:53 PM,59.0,57.9,96,30.06,10.0,NW,3.5,-,N/A,,Clear,320,2013-08-03 02:53:00
10:53 PM,60.1,57.0,90,30.07,10.0,North,3.5,-,N/A,,Clear,360,2013-08-03 03:53:00
11:53 PM,57.0,55.0,93,30.08,6.0,Calm,Calm,-,N/A,,Clear,0,2013-08-03 04:53:00